Preview of NWS' New Version of Forecast
This preview is not operational and should not be used for support decisions.

Regional Weather Roundup (RWR)

Issued by National Weather Service (NWS)

                            
000
ASUS43 KTOP 180608
RWRKS 

WEATHER ROUNDUP FOR KANSAS
NATIONAL WEATHER SERVICE GOODLAND KS
100 AM CDT THU APR 18 2019

NOTE:  "FAIR" INDICATES FEW OR NO CLOUDS BELOW 12,000 FEET WITH NO
SIGNIFICANT WEATHER AND/OR OBSTRUCTIONS TO VISIBILITY.

KSZ001>006-013>018-027>032-041>047-180700-
NORTHWEST KANSAS
  
CITY           SKY/WX    TMP DP  RH WIND       PRES   REMARKS
GOODLAND       PTCLDY    40  31  70 N9        29.93R                  
6HR MIN TEMP:  39; 6HR MAX TEMP:  64;                                

HAYS           MOCLDY    49  40  71 NE6       29.88R                  
HILL CITY      PTCLDY    44  37  76 N6        29.90R                  
6HR MIN TEMP:  44; 6HR MAX TEMP:  68;                                

RUSSELL        CLOUDY    50  40  68 N9        29.83S                  
6HR MIN TEMP:  50; 6HR MAX TEMP:  67;                                

$$

KSZ061>065-074>080-084>089-180700-
SOUTHWEST KANSAS
  
CITY           SKY/WX    TMP DP  RH WIND       PRES   REMARKS
DODGE CITY     CLOUDY    52  40  63 N13       29.86R                  
6HR MIN TEMP:  52; 6HR MAX TEMP:  69;                                

ELKHART        PTCLDY    50  39  66 N9        29.90R                  
GARDEN CITY    CLOUDY    50  39  66 NE9       29.89R                  
6HR MIN TEMP:  50; 6HR MAX TEMP:  66;                                

GREAT BEND     CLOUDY    54  41  61 NE15      29.86R                  
LIBERAL        PTCLDY    55  42  61 NE13      29.88R                  
PRATT          CLOUDY    56  41  57 NE18G24   29.82R                  
6HR MIN TEMP:  56; 6HR MAX TEMP:  73; 6HR PCP:  0.02;                

$$

KSZ066>073-081>083-090>101-180700-
SOUTHEAST KANSAS
  
CITY           SKY/WX    TMP DP  RH WIND       PRES   REMARKS
CHANUTE        HVY RAIN  60  57  89 N15       29.75R FOG              
6HR MIN TEMP:  60; 6HR MAX TEMP:  75; 6HR PCP:  1.06;                

COFFEYVILLE    LGT RAIN  61  57  87 W15G23    29.72R                  
6HR MIN TEMP:  59; 6HR MAX TEMP:  74; 6HR PCP:  0.27;                

HUTCHINSON     CLOUDY    55  44  66 N10G29    29.83R                  
6HR MIN TEMP:  55; 6HR MAX TEMP:  74; 6HR PCP:  0.06;                

MEDICINE LODGE   N/A     55  50  83 NE14G31   29.78S                  
NEWTON         LGT RAIN  52  47  83 N13       29.81S                  
PARSONS        LGT RAIN  60  58  92 NW13G24   29.71F                  
6HR MIN TEMP:  60; 6HR MAX TEMP:  74; 6HR PCP:  0.34;                

WICHITA INTL   LGT RAIN  55  48  77 N10G22    29.81R                  
6HR MIN TEMP:  55; 6HR MAX TEMP:  74; 6HR PCP:  0.90;                

WICHITA MCCONL HVY RAIN  54  50  88 NW15G29   29.80R                  
WINFIELD       LGT RAIN  57  54  89 N30G45    29.72R                  
6HR MIN TEMP:  57; 6HR MAX TEMP:  75; 6HR PCP:  1.57;                

$$

KSZ007>012-019>026-033>040-048>060-102>105-180700-
NORTHEAST KANSAS
  
CITY           SKY/WX    TMP DP  RH WIND       PRES   REMARKS
CONCORDIA      CLOUDY    52  42  69 N10       29.82F                  
6HR MIN TEMP:  52; 6HR MAX TEMP:  68;                                

EMPORIA        RAIN      52  51  97 N13G20    29.77R                  
6HR MIN TEMP:  52; 6HR MAX TEMP:  71; 6HR PCP:  0.62;                

LAWRENCE       LGT RAIN  55  49  80 N13G22    29.76F                  
6HR MIN TEMP:  55; 6HR MAX TEMP:  75; 6HR PCP:  0.55;                

MANHATTAN      CLOUDY    56  43  61 N10G21    29.80S                  
6HR MIN TEMP:  56; 6HR MAX TEMP:  75;                                

MARYSVILLE     CLOUDY    50  43  76 N10       29.81F                  
OLATHE IND     LGT RAIN  54  53  97 NW21G33   29.74S                  
6HR MIN TEMP:  54; 6HR MAX TEMP:  73; 6HR PCP:  1.20;                

OLATHE EXE     RAIN      53  51  93 NW16G35   29.72F FOG              
6HR MIN TEMP:  54; 6HR MAX TEMP:  73; 6HR PCP:  1.72;                

SALINA         CLOUDY    55  41  59 N13       29.82F                  
6HR MIN TEMP:  55; 6HR MAX TEMP:  72;                                

TOPEKA BILLARD CLOUDY    54  46  74 N13       29.78F                  
6HR MIN TEMP:  54; 6HR MAX TEMP:  76; 6HR PCP:  0.05;                

TOPEKA FORBES  CLOUDY    54  48  80 N12G22    29.77F                  
6HR MIN TEMP:  54; 6HR MAX TEMP:  74; 6HR PCP:  0.40;                

$$